Flight Information

DEPARTURE
SAN FRANCISCO, CA
Elevation:
13
Runways:
10L/28R - 11870x200 - ASPH-G
10R/28L - 11381x200 - ASPH-G
1L/19R - 7650x200 - ASPH-G
1R/19L - 8650x200 - ASPH-G
Active PE Departure:
1R - 1L
Current PE ATIS:
B
Altimeter:
30.00
Remarks:
V F R DEPARTURES CONTACT CLEARANCE DELIVERY, ADVISE ON COURSE HEADING, ALTITUDE, AND IF FLIGHT FOLLOWING IS REQUESTED.
ATIS:
118.85 650-877-3585
Clearance Delivery:
118.2
Ground:
121.8
Tower:
120.5
DESTINATION
,
Elevation:
TPA:
1000 (est.)


6905.5 NM69° True-15° Var53° HDG

Flight Plan:
(click to file on line)

1. Type
2. Aircraft Identification
3. Aircraft Type / Special Equipment
4. True Airspeed
kts
5. Departure Airport
(ICAO code)
6. Arriving Airport
(ICAO code)
7. Cruising Altitude
ft
8. Alternate Airport
(ICAO code)
9. Route of Flight
10. Remarks


00:00:00 Departure ATIS: Destination ATIS:

Clearance Limit:
Route:
Altitude: Expect in minutes
Frequency:
Transponder: (7500 Hijack / 7600 Lost Comms / 7700 Emergency)


KSFO 110356Z 28012KT 10SM FEW013 11/06 A3000 RMK AO2 SLP158 T01110056
Time: 2021-04-11T03:56:00Z
1618114073
Winds: 280 @ 12 kts
Visibility: 10.0 sm
Clouds (AGL): FEW 1300
Temperature: 11.1 C
Dew Point: 5.6 C
Pressure: 30.0 in Hgbr


Notes:

Data extracted from FAA Digital Chart Supplement. Effective: 0901Z Thursday, Feb 25, 2021 to 0901Z Thursday, APR 22, 2021
Current ATIS data is provided courtisy of PilotEdge.